Location: Kapla
(46.2483°N, 15.0094°E)
Time: 15:03:55
(UTC+00:00)

Cosmos 2369 Rocket - Pass Details

Date: 03 March 2021
Orbit: 829 x 852 km, 71.0° (Epoch: 17 April)

Event Time Altitude Azimuth Distance (km) Brightness Sun altitude
Rises 19:46:01 0° 341° (NNW) 3,382 5.9 -30.7°
Reaches altitude 10° 19:49:45 10° 6° (N) 2,447 4.8 -31.2°
Enters shadow 19:51:02 13° 19° (NNE) 2,255 4.5 -31.4°
